Volver al catálogo

COSMOS 660

ActivoMilitarPO
NORAD 7337·PAYLOAD·🇷🇺 Russia

Lanzado Jun 18, 1974 desde Plesetsk Cosmodrome

Loading…

Próximos Pases (próximas 24 horas)

TLE

ActualizadoSource: Space-Track

Época: Sep 14, 2026, 13:28 UTC

1 07337U 74044A   26257.56133827  .00006538  00000-0  25726-3 0  9993
2 07337  82.9387 191.6179 0428555  72.7110 292.0508 14.68666231654734

Sigue COSMOS 660 en tiempo real con AllMySat

Download on the App Store